Tracking 28531 objects as of 2-Mar-2024
HD Live streaming from Space Station
objects crossing your sky now

LEMUR 2 THE-CLEANER

Track LEMUR 2 THE-CLEANER now!
10-day predictions
LEMUR 2 THE-CLEANER is classified as:


NORAD ID: 58333
Int'l Code: 2023-174CF
Perigee: 510.2 km
Apogee: 523.7 km
Inclination: 97.5 °
Period: 94.8 minutes
Semi major axis: 6887 km
RCS: Unknown
Launch date: November 11, 2023
Source: United States (US)
Launch site: AIR FORCE WESTERN TEST RANGE (AFWTR)
Your satellite tracking list
Your tracking list is empty




NASA's NSSDC Master Catalog

Two Line Element Set (TLE):
1 58333U 23174CF  24061.45843164  .00014661  00000-0  70831-3 0  9997
2 58333  97.4625 137.7918 0009797 215.9974 144.0602 15.18700232 17387
Source of the keplerian elements: AFSPC